"datetime","# probes","# resolvers","can_ipv6","can_ipv6_prbs","can_tcp","can_tcp_prbs","can_tcp6","can_tcp6_prbs","does_ecs","does_ecs_prbs","does_flagday","does_flagday_prbs","does_rov4","does_rov4_prbs","does_rov6","does_rov6_prbs","does_qnamemin","doesnt_qnamemin","does_qnamemin_prbs","doesnt_qnamemin_prbs","does_nxdomain","doesnt_nxdomain","does_nxdomain_prbs","doesnt_nxdomain_prbs","has_ta_19036","hasnt_ta_19036","has_ta_19036_prbs","hasnt_ta_19036_prbs","has_ta_20326","hasnt_ta_20326","has_ta_20326_prbs","hasnt_ta_20326_prbs","can_rsamd5","cannot_rsamd5","broken_rsamd5","can_rsamd5_prbs","cannot_rsamd5_prbs","broken_rsamd5_prbs","can_dsa","cannot_dsa","broken_dsa","can_dsa_prbs","cannot_dsa_prbs","broken_dsa_prbs","can_rsasha1","cannot_rsasha1","broken_rsasha1","can_rsasha1_prbs","cannot_rsasha1_prbs","broken_rsasha1_prbs","can_dsansec3","cannot_dsansec3","broken_dsansec3","can_dsansec3_prbs","cannot_dsansec3_prbs","broken_dsansec3_prbs","can_rsansec3","cannot_rsansec3","broken_rsansec3","can_rsansec3_prbs","cannot_rsansec3_prbs","broken_rsansec3_prbs","can_rsasha256","cannot_rsasha256","broken_rsasha256","can_rsasha256_prbs","cannot_rsasha256_prbs","broken_rsasha256_prbs","can_rsasha512","cannot_rsasha512","broken_rsasha512","can_rsasha512_prbs","cannot_rsasha512_prbs","broken_rsasha512_prbs","can_eccgost","cannot_eccgost","broken_eccgost","can_eccgost_prbs","cannot_eccgost_prbs","broken_eccgost_prbs","can_ecdsa256","cannot_ecdsa256","broken_ecdsa256","can_ecdsa256_prbs","cannot_ecdsa256_prbs","broken_ecdsa256_prbs","can_ecdsa384","cannot_ecdsa384","broken_ecdsa384","can_ecdsa384_prbs","cannot_ecdsa384_prbs","broken_ecdsa384_prbs","can_ed25519","cannot_ed25519","broken_ed25519","can_ed25519_prbs","cannot_ed25519_prbs","broken_ed25519_prbs","can_ed448","cannot_ed448","broken_ed448","can_ed448_prbs","cannot_ed448_prbs","broken_ed448_prbs","can_gost","cannot_gost","broken_gost","can_gost_prbs","cannot_gost_prbs","broken_gost_prbs","can_sha384","cannot_sha384","broken_sha384","can_sha384_prbs","cannot_sha384_prbs","broken_sha384_prbs","is_internal","is_forwarding","is_external","is_internal_prbs","is_forwarding_prbs","is_external_prbs"
2017-06-20T23:59:59Z,155,293,258,136,292,155,245,131,36,30,0,0,0,0,0,0,1,292,2,155,0,293,0,155,0,0,0,0,0,0,0,0,15,242,36,13,138,27,259,33,1,145,40,3,293,0,0,155,21,2,259,33,1,145,41,3,292,1,0,155,23,2,292,1,0,155,23,2,292,1,0,155,23,2,249,43,1,140,49,3,293,0,0,155,23,2,293,0,0,155,23,2,0,292,1,0,155,3,0,292,1,0,155,3,283,9,1,151,30,3,293,0,0,155,23,2,242,9,42,137,9,41
2017-06-21T23:59:59Z,154,293,258,135,293,154,247,131,38,33,0,0,0,0,0,0,1,292,2,154,0,293,0,154,0,0,0,0,0,0,0,0,16,239,38,13,137,29,257,35,1,143,42,3,293,0,0,154,22,2,257,35,1,143,43,3,293,0,0,154,23,2,293,0,0,154,23,2,293,0,0,154,23,2,247,45,1,138,51,3,293,0,0,154,24,2,293,0,0,154,24,2,0,292,1,0,154,3,0,292,1,0,154,3,284,8,1,150,28,3,293,0,0,154,24,2,240,8,45,136,9,42
2017-06-22T23:59:59Z,152,293,257,132,293,152,245,127,38,32,0,0,0,0,0,0,2,291,3,151,0,293,0,152,0,0,0,0,0,0,0,0,15,241,37,12,136,27,258,34,1,142,42,2,293,0,0,152,22,1,257,35,1,141,44,2,293,0,0,152,23,1,293,0,0,152,23,1,293,0,0,152,23,1,248,44,1,137,51,2,293,0,0,152,25,1,293,0,0,152,25,1,0,292,1,0,152,2,0,292,1,0,152,2,285,7,1,149,28,3,293,0,0,152,24,2,241,7,45,135,9,42
2017-06-23T23:59:59Z,151,288,252,131,288,151,239,126,35,30,0,0,0,0,0,0,2,286,3,150,0,288,1,151,0,0,0,0,0,0,0,0,15,239,34,12,135,26,256,31,1,141,41,3,288,0,0,151,23,2,255,32,1,140,42,3,288,0,0,151,22,2,288,0,0,151,22,2,288,0,0,151,22,2,246,41,1,136,49,3,288,0,0,151,22,2,288,0,0,151,22,2,0,287,1,0,151,3,0,287,1,0,151,3,280,7,1,148,26,4,288,0,0,151,23,3,239,7,42,134,10,40
2017-06-24T23:59:59Z,147,283,247,127,283,147,235,122,35,30,0,0,0,0,0,0,2,281,3,146,0,283,0,147,0,0,0,0,0,0,0,0,15,233,35,13,131,25,250,32,1,137,40,2,283,0,0,147,22,1,250,32,1,137,40,2,283,0,0,147,21,1,283,0,0,147,21,1,283,0,0,147,21,1,241,41,1,133,47,2,283,0,0,147,21,1,283,0,0,147,21,1,0,282,1,0,147,2,0,282,1,0,147,2,275,7,1,144,26,3,283,0,0,147,22,2,233,7,43,130,9,40
2017-06-25T23:59:59Z,148,286,250,128,286,148,237,123,34,31,0,0,0,0,0,0,2,284,3,147,0,286,0,148,0,0,0,0,0,0,0,0,15,238,33,12,133,24,255,30,1,138,39,2,286,0,0,148,22,1,254,31,1,137,41,2,285,1,0,148,23,1,285,1,0,148,23,1,285,1,0,148,23,1,244,41,1,133,48,2,285,1,0,148,23,1,285,1,0,148,23,1,0,285,1,0,148,2,0,285,1,0,148,2,277,8,1,145,28,3,286,0,0,148,22,2,238,7,41,131,10,39
2017-06-26T23:59:59Z,154,298,261,134,298,154,248,129,36,31,0,0,0,0,0,0,2,296,3,153,0,298,0,154,0,0,0,0,0,0,0,0,16,246,36,13,138,26,264,33,1,143,41,2,298,0,0,154,22,1,264,33,1,143,41,2,298,0,0,154,22,1,298,0,0,154,22,1,298,0,0,154,22,1,254,43,1,139,49,2,298,0,0,154,23,1,298,0,0,154,23,1,0,297,1,0,154,2,0,297,1,0,154,2,289,8,1,151,28,3,298,0,0,154,23,2,246,8,44,135,11,41
2017-06-27T23:59:59Z,151,291,254,131,291,151,241,126,32,27,0,0,0,0,0,0,2,289,3,150,0,291,0,151,0,0,0,0,0,0,0,0,16,242,33,13,135,24,260,30,1,140,38,2,290,0,1,151,20,2,261,29,1,141,38,2,291,0,0,151,20,1,291,0,0,151,20,1,291,0,0,151,20,1,251,39,1,137,46,2,291,0,0,151,21,1,291,0,0,151,21,1,0,290,1,0,151,2,0,290,1,0,151,2,282,8,1,148,27,3,291,0,0,151,21,2,243,8,40,133,10,38
2017-06-28T23:59:59Z,153,296,259,133,296,153,246,128,35,30,0,0,0,0,0,0,2,294,3,152,0,296,0,153,0,0,0,0,0,0,0,0,17,244,35,14,136,26,264,31,1,143,40,3,295,0,1,153,21,3,262,33,1,142,42,3,294,1,1,153,22,3,295,1,0,153,22,2,295,1,0,153,22,2,250,44,2,136,50,4,293,2,1,153,24,3,293,2,1,153,24,3,1,294,1,1,153,3,0,295,1,0,153,3,284,10,2,148,28,5,296,0,0,153,21,3,245,9,42,135,11,40
2017-06-29T23:59:57Z,152,295,258,132,295,152,246,128,36,29,0,0,0,0,0,0,3,292,4,151,0,295,0,152,0,0,0,0,0,0,0,0,17,243,35,14,136,25,261,33,1,141,41,2,294,1,0,152,22,1,261,33,1,141,40,2,294,1,0,152,21,1,294,1,0,152,21,1,294,1,0,152,21,1,249,45,1,135,48,2,294,1,0,152,23,1,294,1,0,152,23,1,0,294,1,0,152,2,0,294,1,0,152,2,284,10,1,147,27,3,295,0,0,152,21,2,242,10,43,133,11,40
2017-06-30T23:59:59Z,152,294,257,132,294,152,243,127,35,29,0,0,0,0,0,0,3,291,4,151,0,294,0,152,0,0,0,0,0,0,0,0,17,244,33,14,137,24,261,32,1,142,40,2,292,2,0,152,22,1,260,33,1,141,41,2,293,1,0,152,21,1,293,1,0,152,21,1,292,1,1,152,21,2,248,44,2,135,49,3,293,1,0,152,22,1,293,1,0,152,22,1,0,293,1,0,152,2,0,293,1,0,152,2,281,12,1,147,28,3,294,0,0,152,20,2,243,9,42,133,11,40
2017-07-01T23:59:59Z,151,288,251,131,288,151,239,127,35,29,0,0,0,0,0,0,2,286,3,150,0,288,0,151,0,0,0,0,0,0,0,0,17,237,34,14,134,25,255,32,1,139,40,2,287,1,0,151,21,1,255,32,1,139,41,2,287,1,0,151,22,1,287,1,0,151,22,1,287,1,0,151,22,1,243,43,2,133,49,3,288,0,0,151,21,1,288,0,0,151,21,1,0,287,1,0,151,2,0,287,1,0,151,2,277,10,1,146,27,3,288,0,0,151,21,2,236,10,42,130,12,40
2017-07-02T23:59:59Z,151,292,256,132,292,151,244,128,35,30,0,0,0,0,0,0,3,289,4,150,0,292,0,151,0,0,0,0,0,0,0,0,16,242,34,13,135,25,259,32,1,140,42,2,291,1,0,151,23,1,259,32,1,140,42,2,292,0,0,151,22,1,292,0,0,151,22,1,292,0,0,151,22,1,247,44,1,134,50,2,291,1,0,151,24,1,291,1,0,151,24,1,0,291,1,0,151,2,0,291,1,0,151,2,280,11,1,146,29,3,292,0,0,151,22,2,241,9,42,132,12,40
2017-07-03T23:59:59Z,153,297,260,134,297,153,249,130,35,28,0,0,0,0,0,0,3,294,4,152,0,297,0,153,0,0,0,0,0,0,0,0,16,247,34,13,137,25,264,33,0,142,40,2,296,1,0,153,21,2,265,32,0,143,39,2,296,1,0,153,21,2,296,1,0,153,21,2,296,1,0,153,21,2,253,44,0,137,47,2,296,1,0,153,22,2,296,1,0,153,22,2,0,297,0,0,153,2,0,297,0,0,153,2,286,11,0,148,28,3,297,0,0,153,21,3,246,9,42,135,10,40
2017-07-04T23:59:59Z,155,301,264,136,301,155,251,131,35,29,0,0,0,0,0,0,3,298,4,154,0,301,0,155,0,0,0,0,0,0,0,0,16,250,35,13,139,25,268,32,1,144,40,2,301,0,0,155,22,1,268,32,1,144,41,2,300,0,1,154,23,2,301,0,0,155,23,1,301,0,0,155,23,1,255,45,1,137,50,2,300,0,1,154,24,2,300,0,1,154,24,2,0,299,2,0,154,3,0,299,2,0,155,3,289,11,1,149,30,3,301,0,0,155,23,2,249,8,44,136,11,41
2017-07-05T23:59:59Z,155,302,265,136,302,155,249,130,35,29,0,0,0,0,0,0,2,300,3,154,0,302,0,155,0,0,0,0,0,0,0,0,16,251,35,13,139,25,269,32,1,145,41,2,302,0,0,155,21,1,269,32,1,145,41,2,302,0,0,155,22,1,302,0,0,155,22,1,302,0,0,155,22,1,256,45,1,138,50,2,302,0,0,155,22,1,302,0,0,155,22,1,0,301,1,0,155,2,0,301,1,0,155,2,290,11,1,149,29,3,302,0,0,155,22,2,250,8,44,137,10,41
2017-07-06T23:59:59Z,155,300,263,136,299,154,246,131,34,28,0,0,0,0,0,0,3,297,4,154,0,299,0,154,0,0,0,0,0,0,0,0,16,250,34,13,140,24,268,31,1,145,39,2,299,0,1,154,21,2,267,31,2,144,40,3,300,0,0,155,22,1,300,0,0,155,21,1,300,0,0,155,21,1,255,44,1,138,49,2,299,0,1,154,21,2,300,0,0,155,21,1,0,299,1,0,155,2,0,299,1,0,155,2,288,11,1,149,28,3,300,0,0,155,22,2,248,9,43,136,11,40
2017-07-07T23:59:59Z,155,302,265,136,302,155,252,131,37,29,0,0,0,0,0,0,3,299,4,154,0,301,0,154,0,0,0,0,0,0,0,0,16,249,37,13,139,25,267,34,1,145,40,2,302,0,0,155,20,1,267,34,1,145,40,2,301,1,0,155,21,1,301,1,0,155,21,1,301,1,0,155,21,1,253,47,2,137,49,3,301,1,0,155,22,1,301,1,0,155,22,1,0,301,1,0,155,2,0,301,1,0,155,2,289,12,1,149,29,3,302,0,0,155,21,2,247,10,45,135,12,41
2017-07-08T23:59:59Z,155,301,264,136,300,155,251,131,34,28,0,0,0,0,0,0,2,299,3,154,0,300,0,154,0,0,0,0,0,0,0,0,16,251,34,13,140,24,268,32,1,145,40,2,300,1,0,155,22,1,269,31,1,145,39,2,301,0,0,155,21,1,301,0,0,155,21,1,301,0,0,155,21,1,256,44,1,138,48,2,300,1,0,155,23,1,300,1,0,155,23,1,0,300,1,0,155,2,0,300,1,0,155,2,289,11,1,149,27,3,301,0,0,155,21,2,249,9,43,136,11,40
2017-07-09T23:59:59Z,158,312,274,139,310,158,261,134,37,30,0,0,0,0,0,0,2,310,3,157,0,311,0,157,0,0,0,0,0,0,0,0,16,261,35,13,143,24,279,33,0,148,42,1,312,0,0,158,23,1,279,33,0,148,42,1,311,0,1,157,22,2,312,0,0,158,22,1,312,0,0,158,22,1,266,46,0,141,51,1,312,0,0,158,22,1,312,0,0,158,22,1,0,312,0,0,158,1,0,312,0,0,158,1,301,11,0,152,29,2,312,0,0,158,23,2,259,9,44,139,11,41
2017-07-10T23:59:59Z,158,307,271,140,307,158,258,135,33,28,0,0,0,0,0,0,2,305,3,157,0,306,1,157,0,0,0,0,0,0,0,0,16,260,31,13,143,22,278,29,0,148,40,1,307,0,0,158,23,1,277,29,1,147,41,2,307,0,0,158,23,1,307,0,0,158,24,1,307,0,0,158,23,1,265,42,0,141,50,1,307,0,0,158,23,1,307,0,0,158,23,1,0,307,0,0,158,1,0,307,0,0,158,1,296,11,0,152,30,3,307,0,0,158,23,3,258,9,40,139,13,39
2017-07-11T23:59:59Z,158,308,273,140,308,158,260,135,35,29,0,0,0,0,0,0,2,306,3,157,0,308,0,158,0,0,0,0,0,0,0,0,14,261,33,12,143,23,276,32,0,148,41,1,307,1,0,158,23,1,277,31,0,148,40,1,308,0,0,158,21,1,308,0,0,158,21,1,308,0,0,158,21,1,265,43,0,141,48,1,308,0,0,158,22,1,308,0,0,158,22,1,0,308,0,0,158,1,0,308,0,0,158,1,298,10,0,152,29,2,308,0,0,158,23,2,259,9,40,140,11,39
2017-07-12T23:59:59Z,157,304,269,139,304,157,256,134,37,30,0,0,0,0,0,0,2,302,3,156,0,304,0,157,0,0,0,0,0,0,0,0,14,255,35,12,141,25,270,34,0,146,43,1,303,1,0,157,23,1,270,34,0,146,43,1,303,1,0,157,23,1,303,1,0,157,23,1,303,1,0,157,23,1,259,45,0,139,51,1,303,1,0,157,23,1,303,1,0,157,23,1,0,304,0,0,157,1,0,304,0,0,157,1,295,9,0,151,28,2,304,0,0,157,22,2,253,9,42,137,11,41
2017-07-13T23:59:59Z,155,305,270,137,305,155,257,132,34,28,0,0,0,0,0,0,3,302,4,154,0,305,0,155,0,0,0,0,0,0,0,0,13,260,32,11,141,23,274,31,0,145,41,1,304,1,0,155,23,1,274,31,0,145,41,1,304,1,0,155,23,1,304,1,0,155,23,1,304,1,0,155,23,1,263,42,0,138,49,1,305,0,0,155,23,1,305,0,0,155,23,1,0,305,0,0,155,1,0,305,0,0,155,1,296,9,0,149,28,2,305,0,0,155,22,2,257,9,39,137,11,39
2017-07-14T23:59:59Z,158,313,278,140,313,158,265,135,35,29,0,0,0,0,0,0,3,310,4,157,0,313,0,158,0,0,0,0,0,0,0,0,13,266,34,11,144,24,281,32,0,148,41,1,313,0,0,158,22,1,281,32,0,148,41,1,313,0,0,158,22,1,313,0,0,158,22,1,313,0,0,158,22,1,270,43,0,141,49,1,313,0,0,158,22,1,313,0,0,158,21,1,0,313,0,0,158,1,0,313,0,0,158,1,304,9,0,152,28,2,313,0,0,158,22,2,265,8,40,139,12,39
2017-07-15T23:59:59Z,158,311,276,139,311,158,262,134,35,29,0,0,0,0,0,0,2,309,3,157,0,311,0,158,0,0,0,0,0,0,0,0,13,264,34,11,143,24,278,33,0,148,41,1,310,1,0,158,21,1,278,33,0,148,41,1,310,1,0,158,21,1,310,1,0,158,21,1,310,1,0,158,21,1,267,44,0,141,49,1,311,0,0,158,21,1,311,0,0,158,21,1,0,311,0,0,158,1,0,311,0,0,158,1,302,9,0,152,27,2,311,0,0,158,21,2,263,8,40,139,11,38
2017-07-16T23:59:59Z,158,311,276,139,311,158,263,134,34,28,0,0,0,0,0,0,2,309,3,157,0,311,0,158,0,0,0,0,0,0,0,0,13,265,33,11,143,23,280,31,0,148,39,1,311,0,0,158,20,1,280,31,0,148,40,1,311,0,0,158,21,1,311,0,0,158,21,1,311,0,0,158,22,1,269,42,0,141,48,1,311,0,0,158,21,1,311,0,0,158,21,1,0,311,0,0,158,1,0,311,0,0,158,1,302,9,0,152,27,2,311,0,0,158,22,2,264,8,39,139,11,37
2017-07-17T23:59:59Z,159,312,284,144,312,159,271,139,37,29,0,0,0,0,0,0,2,310,3,158,0,312,0,159,0,0,0,0,0,0,0,0,13,263,36,11,142,24,278,34,0,147,39,1,312,0,0,159,19,1,278,34,0,147,40,1,311,1,0,159,21,1,311,1,0,159,21,1,310,1,1,159,21,2,267,45,0,140,48,1,311,1,0,159,22,1,311,1,0,159,22,1,0,312,0,0,159,1,0,312,0,0,159,1,303,9,0,153,26,2,312,0,0,159,20,2,262,9,41,139,10,37
2017-07-18T23:59:59Z,160,320,292,146,320,160,271,137,41,31,0,0,0,0,0,0,2,318,3,159,0,320,0,160,0,0,0,0,0,0,0,0,14,267,39,12,144,26,281,39,0,149,43,1,318,2,0,160,22,1,281,38,1,149,43,2,319,1,0,160,21,1,319,1,0,160,21,1,319,1,0,160,21,1,270,50,0,142,51,1,319,1,0,160,22,1,319,1,0,160,22,1,0,320,0,0,160,1,0,320,0,0,160,1,308,11,1,154,28,3,320,0,0,160,20,2,266,9,45,141,10,40
2017-07-19T23:59:59Z,160,319,305,156,319,160,241,136,41,31,0,0,0,0,0,0,2,317,3,159,0,318,1,160,0,0,0,0,0,0,0,0,14,266,39,12,144,27,281,38,0,149,41,2,318,1,0,160,20,2,281,38,0,149,42,2,319,0,0,160,20,2,319,0,0,160,20,2,318,0,1,160,20,3,270,49,0,142,50,2,319,0,0,160,21,2,318,0,1,160,21,3,0,318,1,0,160,3,0,318,1,0,160,3,310,9,0,154,26,3,319,0,0,160,20,3,265,9,45,141,10,39
2017-07-20T23:59:59Z,159,315,301,155,315,159,207,122,38,30,0,0,0,0,0,0,2,313,3,158,0,315,0,159,0,0,0,0,0,0,0,0,14,264,37,12,143,25,280,35,0,148,41,1,315,0,0,159,21,1,280,35,0,148,42,1,315,0,0,159,22,1,315,0,0,159,22,1,315,0,0,159,22,1,269,46,0,141,50,1,315,0,0,159,23,1,315,0,0,159,23,1,0,315,0,0,159,1,0,315,0,0,159,1,306,9,0,153,27,2,315,0,0,159,22,2,264,8,43,140,12,38
2017-07-21T23:59:59Z,162,318,304,158,318,162,210,124,40,31,0,0,0,0,0,0,3,315,4,161,0,318,0,162,0,0,0,0,0,0,0,0,14,265,39,12,145,26,281,37,0,150,42,1,318,0,0,162,21,1,281,37,0,150,41,1,318,0,0,162,19,1,318,0,0,162,19,1,318,0,0,162,19,1,270,48,0,143,49,1,318,0,0,162,22,1,318,0,0,162,22,1,0,318,0,0,162,1,0,318,0,0,162,1,309,9,0,156,27,2,318,0,0,162,21,2,265,8,45,142,9,39
2017-07-22T23:59:59Z,158,308,295,154,308,158,203,119,37,29,0,0,0,0,0,0,3,305,4,157,0,308,0,158,0,0,0,0,0,0,0,0,14,258,36,12,141,24,274,34,0,146,39,1,308,0,0,158,19,1,274,34,0,146,39,1,308,0,0,158,19,1,308,0,0,158,19,1,308,0,0,158,19,1,263,45,0,139,47,1,308,0,0,158,22,1,308,0,0,158,22,1,0,308,0,0,158,1,0,308,0,0,158,1,299,9,0,152,26,2,308,0,0,158,21,2,259,7,42,139,8,37
2017-07-23T23:59:59Z,159,314,301,155,314,159,206,120,40,31,0,0,0,0,0,0,2,312,3,158,0,314,0,159,0,0,0,0,0,0,0,0,14,262,38,12,142,25,277,37,0,147,40,1,313,1,0,159,20,1,277,37,0,147,41,1,314,0,0,159,20,1,314,0,0,159,20,1,314,0,0,159,20,1,266,48,0,140,49,1,314,0,0,159,21,1,314,0,0,159,21,1,0,314,0,0,159,1,0,314,0,0,159,1,304,10,0,153,27,2,314,0,0,159,20,2,262,8,44,139,10,38
2017-07-24T23:59:59Z,163,322,306,159,322,163,208,125,40,31,0,0,0,0,0,0,2,320,3,162,0,322,0,163,0,0,0,0,0,0,0,0,14,269,39,12,145,26,285,37,0,151,41,1,322,0,0,163,19,1,284,38,0,151,42,1,321,1,0,163,21,1,321,1,0,163,21,1,321,1,0,163,21,1,272,50,0,144,50,1,319,3,0,161,22,1,322,0,0,163,20,1,0,322,0,0,163,1,0,322,0,0,163,1,304,17,1,156,33,3,322,0,0,163,20,2,269,8,45,142,11,39
2017-07-25T23:59:59Z,164,324,308,159,324,164,213,122,41,31,0,0,0,0,0,0,2,322,3,163,0,324,0,164,0,0,0,0,0,0,0,0,15,269,40,12,146,26,285,39,0,152,42,1,323,1,0,164,20,1,285,39,0,152,42,1,322,2,0,164,21,1,322,2,0,164,21,1,322,2,0,164,21,1,273,51,0,145,50,1,322,2,0,164,22,1,322,2,0,164,22,1,0,324,0,0,164,1,0,324,0,0,164,1,312,12,0,158,27,2,324,0,0,164,19,2,270,9,45,144,10,39
2017-07-26T23:59:59Z,165,328,312,161,328,165,212,125,43,33,0,0,0,0,0,0,2,326,3,164,0,328,0,165,0,0,0,0,0,0,0,0,14,272,42,12,147,28,288,40,0,153,43,1,328,0,0,165,19,1,288,40,0,153,44,1,328,0,0,165,20,1,328,0,0,165,20,1,328,0,0,165,20,1,276,52,0,146,52,1,328,0,0,165,21,1,328,0,0,165,21,1,0,328,0,0,165,1,0,328,0,0,165,1,318,10,0,159,26,2,328,0,0,165,21,2,272,8,48,144,11,41
2017-07-27T23:59:59Z,160,320,304,156,320,160,216,127,42,32,0,0,0,0,0,0,2,318,3,159,0,320,0,160,0,0,0,0,0,0,0,0,14,265,41,12,143,27,281,39,0,148,42,1,320,0,0,160,19,1,281,39,0,148,43,1,320,0,0,160,20,1,320,0,0,160,19,1,320,0,0,160,19,1,269,51,0,141,51,1,320,0,0,160,21,1,320,0,0,160,21,1,0,320,0,0,160,1,0,320,0,0,160,1,310,10,0,154,26,2,320,0,0,160,20,2,265,8,47,140,10,40
2017-07-28T23:59:59Z,158,315,299,153,315,158,207,120,43,32,0,0,0,0,0,0,2,313,3,157,0,315,0,158,0,0,0,0,0,0,0,0,14,260,41,12,141,27,275,40,0,146,42,1,314,1,0,158,19,1,275,40,0,146,42,1,315,0,0,158,18,1,315,0,0,158,18,1,315,0,0,158,18,1,263,52,0,139,50,1,314,1,0,158,20,1,314,1,0,158,20,1,0,315,0,0,158,1,0,315,0,0,158,1,303,12,0,152,26,2,315,0,0,158,18,2,259,9,47,137,11,40
2017-07-29T23:59:59Z,159,314,298,154,314,159,205,119,41,31,0,0,0,0,0,0,3,311,4,158,0,314,0,159,0,0,0,0,0,0,0,0,15,259,40,13,140,26,276,38,0,147,41,1,314,0,0,159,19,1,276,38,0,147,42,1,313,1,0,159,21,1,313,1,0,159,21,1,314,0,0,159,20,1,263,51,0,139,51,1,314,0,0,159,20,1,314,0,0,159,20,1,0,314,0,0,159,1,0,314,0,0,159,1,303,11,0,152,27,2,314,0,0,159,20,2,259,10,45,137,13,39
2017-07-30T23:59:59Z,159,309,290,153,309,159,199,117,40,32,0,0,0,0,0,0,1,308,2,158,0,309,0,159,0,0,0,0,0,0,0,0,15,255,39,13,140,26,272,37,0,147,41,1,309,0,0,159,18,1,272,37,0,147,41,1,309,0,0,159,19,1,309,0,0,159,18,1,309,0,0,159,19,1,259,50,0,139,50,1,309,0,0,159,21,1,309,0,0,159,21,1,0,309,0,0,159,1,0,309,0,0,159,1,298,11,0,152,27,2,309,0,0,159,20,2,255,9,45,137,14,39
2017-07-31T23:59:59Z,158,315,295,151,314,158,204,122,43,33,0,0,0,0,0,0,2,313,3,157,0,315,0,158,0,0,0,0,0,0,0,0,15,259,41,13,140,27,275,40,0,146,42,1,314,1,0,158,19,1,275,40,0,146,43,1,315,0,0,158,19,1,315,0,0,158,19,1,315,0,0,158,19,1,262,53,0,138,52,1,315,0,0,158,19,1,315,0,0,158,20,1,0,315,0,0,158,1,0,315,0,0,158,1,304,11,0,151,26,2,315,0,0,158,19,2,258,10,47,137,12,40
2017-08-01T23:59:59Z,158,316,296,152,316,158,209,123,43,33,0,0,0,0,0,0,1,315,2,157,0,316,0,158,0,0,0,0,0,0,0,0,15,260,41,13,140,27,276,40,0,146,42,1,315,1,0,158,19,1,275,41,0,146,43,1,315,1,0,158,19,1,315,1,0,158,19,1,315,1,0,158,19,1,262,54,0,138,52,1,314,2,0,158,21,1,314,2,0,158,21,1,0,316,0,0,158,1,0,316,0,0,158,1,303,13,0,151,27,2,316,0,0,158,18,2,259,10,47,137,12,40
2017-08-02T23:59:59Z,156,312,292,150,310,156,206,119,39,32,0,0,0,0,0,0,1,311,2,155,0,312,0,156,0,0,0,0,0,0,0,0,15,259,38,13,139,26,276,36,0,145,41,1,312,0,0,156,19,1,276,36,0,145,41,1,312,0,0,156,19,1,312,0,0,156,19,1,312,0,0,156,19,1,263,49,0,137,50,1,312,0,0,156,19,1,312,0,0,156,19,1,0,312,0,0,156,1,0,312,0,0,156,1,301,11,0,149,27,2,312,0,0,156,20,2,259,9,44,135,14,39
2017-08-03T23:59:59Z,154,305,285,147,305,154,203,120,40,32,0,0,0,0,0,0,1,304,2,153,0,305,0,154,0,0,0,0,0,0,0,0,15,251,39,13,136,26,268,37,0,143,41,1,305,0,0,154,18,1,268,37,0,143,42,1,305,0,0,154,19,1,305,0,0,154,19,1,305,0,0,154,19,1,255,50,0,135,51,1,305,0,0,154,19,1,305,0,0,154,19,1,0,305,0,0,154,1,0,305,0,0,154,1,294,11,0,147,26,2,305,0,0,154,19,2,251,10,44,134,12,39
2017-08-04T23:59:59Z,154,306,286,148,306,154,201,119,41,33,0,0,0,0,0,0,1,305,2,153,0,306,0,154,0,0,0,0,0,0,0,0,15,252,39,13,138,27,268,38,0,143,42,1,305,1,0,154,20,1,268,38,0,143,43,1,306,0,0,154,20,1,306,0,0,154,20,1,306,0,0,154,20,1,255,51,0,135,52,1,305,1,0,154,22,1,305,1,0,154,22,1,0,306,0,0,154,1,0,306,0,0,154,1,295,11,0,147,27,2,306,0,0,154,20,2,251,10,45,133,13,40
2017-08-05T23:59:59Z,154,304,284,148,304,154,200,119,38,31,0,0,0,0,0,0,2,302,3,153,0,304,0,154,0,0,0,0,0,0,0,0,15,252,37,13,137,25,269,35,0,144,41,1,304,0,0,154,19,1,269,35,0,144,42,1,304,0,0,154,20,1,304,0,0,154,20,1,304,0,0,154,20,1,256,48,0,136,51,1,304,0,0,154,21,1,304,0,0,154,21,1,0,304,0,0,154,1,0,304,0,0,154,1,293,11,0,147,27,2,304,0,0,154,20,2,252,10,42,134,13,39
2017-08-06T23:59:59Z,155,307,287,149,307,155,196,117,37,31,0,0,0,0,0,0,1,306,2,154,0,307,0,155,0,0,0,0,0,0,0,0,15,256,36,13,139,25,273,34,0,145,41,1,307,0,0,155,20,1,273,34,0,145,41,1,307,0,0,155,20,1,307,0,0,155,19,1,307,0,0,155,19,1,260,47,0,137,50,1,306,1,0,155,22,1,306,1,0,155,22,1,0,307,0,0,155,1,0,307,0,0,155,1,295,12,0,148,27,2,307,0,0,155,20,2,256,9,42,135,12,39
2017-08-07T23:59:59Z,160,316,295,152,316,160,204,121,43,34,0,0,0,0,0,0,1,315,2,159,0,316,0,160,0,0,0,0,0,0,0,0,15,259,42,13,142,28,276,40,0,149,45,1,316,0,0,160,21,1,275,41,0,149,46,1,314,2,0,160,23,1,314,2,0,160,23,1,314,2,0,160,23,1,262,54,0,141,55,1,315,1,0,160,23,1,315,1,0,160,23,1,0,316,0,0,160,1,0,316,0,0,160,1,303,13,0,153,30,2,316,0,0,160,21,2,259,10,47,140,12,42
2017-08-08T23:59:59Z,158,310,291,151,310,158,202,119,41,33,0,0,0,0,0,0,1,309,2,157,0,310,0,158,0,0,0,0,0,0,0,0,15,255,40,13,141,27,272,38,0,148,43,1,310,0,0,158,20,1,271,39,0,148,44,1,309,1,0,158,21,1,309,1,0,158,21,1,309,1,0,158,21,1,258,52,0,140,53,1,309,1,0,158,22,1,309,1,0,158,22,1,0,310,0,0,158,1,0,310,0,0,158,1,297,13,0,151,29,2,310,0,0,158,20,2,256,10,44,139,12,40
2017-08-09T23:59:59Z,160,313,294,152,313,160,203,122,43,34,0,0,0,0,0,0,2,311,3,159,0,313,0,160,0,0,0,0,0,0,0,0,15,257,41,13,143,28,273,40,0,149,45,1,312,1,0,160,22,1,273,40,0,149,46,1,312,1,0,160,22,1,312,1,0,160,23,1,313,0,0,160,22,1,260,53,0,141,55,1,313,0,0,160,23,1,313,0,0,160,23,1,0,313,0,0,160,1,0,313,0,0,160,1,301,12,0,153,30,2,313,0,0,160,22,2,256,10,47,139,13,42
2017-08-10T23:59:59Z,159,314,295,152,314,159,198,119,41,33,0,0,0,0,0,0,1,313,2,158,0,314,0,159,0,0,0,0,0,0,0,0,15,259,40,13,143,27,276,38,0,149,44,1,314,0,0,159,22,1,276,38,0,149,45,1,314,0,0,159,22,1,314,0,0,159,22,1,314,0,0,159,22,1,263,51,0,141,54,1,314,0,0,159,22,1,314,0,0,159,22,1,0,314,0,0,159,1,0,314,0,0,159,1,303,11,0,152,30,2,314,0,0,159,23,2,259,9,46,140,12,41
2017-08-11T23:59:59Z,156,308,290,149,308,156,201,121,40,33,0,0,0,0,0,0,1,307,2,155,0,308,0,156,0,0,0,0,0,0,0,0,15,254,39,13,140,27,271,37,0,146,44,1,308,0,0,156,22,1,271,37,0,146,44,1,308,0,0,156,21,1,308,0,0,156,21,1,308,0,0,156,21,1,258,50,0,138,53,1,307,1,0,156,24,1,307,1,0,156,24,1,0,308,0,0,156,1,0,308,0,0,156,1,296,12,0,149,29,2,308,0,0,156,22,2,254,9,45,137,13,41
2017-08-12T23:59:59Z,159,309,289,149,309,159,202,120,44,35,0,0,0,0,0,0,2,307,3,158,0,309,0,159,0,0,0,0,0,0,0,0,15,251,43,13,142,29,268,41,0,147,46,1,309,0,0,159,23,1,268,41,0,147,46,1,309,0,0,159,23,1,309,0,0,159,23,1,309,0,0,159,23,1,255,54,0,139,55,1,309,0,0,159,24,1,309,0,0,159,24,1,0,309,0,0,159,1,0,309,0,0,159,1,298,11,0,152,30,2,309,0,0,159,24,2,251,9,49,137,14,43
2017-08-13T23:59:59Z,158,311,291,148,311,158,204,118,43,34,0,0,0,0,0,0,2,309,3,157,0,311,0,158,0,0,0,0,0,0,0,0,15,254,42,13,143,28,271,40,0,148,46,1,311,0,0,158,24,1,271,40,0,148,47,1,311,0,0,158,25,1,311,0,0,158,25,1,311,0,0,158,25,1,258,53,0,140,56,1,311,0,0,158,26,1,311,0,0,158,26,1,0,311,0,0,158,1,0,311,0,0,158,1,300,11,0,151,32,2,311,0,0,158,25,2,254,9,48,139,13,42
2017-08-14T23:59:59Z,161,315,292,150,315,161,202,119,42,33,0,0,0,0,0,0,1,314,2,160,0,315,0,161,0,0,0,0,0,0,0,0,15,259,41,13,145,28,276,39,0,150,44,1,315,0,0,161,22,1,276,39,0,150,45,1,315,0,0,161,22,1,314,0,1,161,22,2,315,0,0,161,22,1,263,52,0,142,54,1,315,0,0,161,22,1,315,0,0,161,22,1,0,315,0,0,161,1,0,315,0,0,161,1,304,11,0,154,30,2,315,0,0,161,23,2,259,9,47,141,13,40
2017-08-15T23:59:59Z,158,312,289,146,312,158,201,116,41,32,0,0,0,0,0,0,1,311,2,157,0,312,0,158,0,0,0,0,0,0,0,0,15,258,39,13,144,26,274,38,0,149,41,1,311,1,0,158,20,1,274,38,0,149,42,1,312,0,0,158,21,1,312,0,0,158,21,1,312,0,0,158,21,1,261,51,0,141,51,1,312,0,0,158,22,1,312,0,0,158,22,1,0,312,0,0,158,1,0,312,0,0,158,2,300,12,0,151,29,2,312,0,0,158,21,2,259,8,45,141,11,39
2017-08-16T23:59:59Z,160,314,290,147,314,160,205,118,43,32,0,0,0,0,0,0,2,312,3,159,0,314,1,160,0,0,0,0,0,0,0,0,15,257,42,13,145,29,274,40,0,151,42,3,314,0,0,160,20,3,274,40,0,151,42,3,313,1,0,160,21,3,313,1,0,160,21,3,313,1,0,160,21,3,261,53,0,143,51,3,314,0,0,160,21,3,314,0,0,160,21,3,0,314,0,0,160,3,0,314,0,0,160,3,303,11,0,153,27,4,314,0,0,160,20,4,259,8,47,143,11,40